Time,TemperatureF,DewpointF,PressureIn,WindDirection,WindDirectionDegrees,WindSpeedMPH,WindSpeedGustMPH,Humidity,HourlyPrecipIn,Conditions,Clouds,dailyrainin,SolarRadiationWatts/m^2,SoftwareType,DateUTC
2016-07-24 00:00:00,75.8,71.0,30.01,North,32767,0.0,0.0,85,0.00,,,0.00,0,Wunderground v.1.15,2016-07-24 04:00:00,
2016-07-24 00:05:00,75.8,71.0,30.01,North,32767,0.0,0.0,85,0.00,,,0.00,0,Wunderground v.1.15,2016-07-24 04:05:00,
2016-07-24 00:10:00,75.9,71.4,30.01,North,32767,0.0,0.0,86,0.00,,,0.00,0,Wunderground v.1.15,2016-07-24 04:10:00,
2016-07-24 00:16:00,75.8,71.0,30.01,North,32767,0.0,0.0,85,0.00,,,0.00,0,Wunderground v.1.15,2016-07-24 04:16:00,
2016-07-24 00:21:00,75.9,71.1,30.01,North,32767,0.0,0.0,85,0.00,,,0.00,0,Wunderground v.1.15,2016-07-24 04:21:00,
2016-07-24 00:26:00,75.8,71.0,30.01,North,32767,0.0,0.0,85,0.00,,,0.00,0,Wunderground v.1.15,2016-07-24 04:26:00,
2016-07-24 00:32:00,75.7,71.2,30.01,North,32767,0.0,0.0,86,0.00,,,0.00,0,Wunderground v.1.15,2016-07-24 04:32:00,
2016-07-24 00:38:00,75.6,71.1,30.01,North,32767,0.0,0.0,86,0.00,,,0.00,0,Wunderground v.1.15,2016-07-24 04:38:00,
2016-07-24 00:44:00,75.5,71.0,30.01,North,32767,0.0,0.0,86,0.00,,,0.00,0,Wunderground v.1.15,2016-07-24 04:44:00,
2016-07-24 00:50:00,75.4,70.9,30.01,North,32767,0.0,0.0,86,0.00,,,0.00,0,Wunderground v.1.15,2016-07-24 04:50:00,
2016-07-24 00:56:00,75.3,71.2,30.02,North,32767,0.0,0.0,87,0.00,,,0.00,0,Wunderground v.1.15,2016-07-24 04:56:00,
2016-07-24 01:01:00,75.0,70.9,30.02,North,32767,0.0,0.0,87,0.00,,,0.00,0,Wunderground v.1.15,2016-07-24 05:01:00,
2016-07-24 01:07:00,74.9,70.8,30.02,North,32767,0.0,0.0,87,0.00,,,0.00,0,Wunderground v.1.15,2016-07-24 05:07:00,
2016-07-24 01:12:00,74.9,70.8,30.02,North,32767,0.0,0.0,87,0.00,,,0.00,0,Wunderground v.1.15,2016-07-24 05:12:00,
2016-07-24 01:17:00,74.6,70.8,30.02,North,32767,0.0,0.0,88,0.00,,,0.00,0,Wunderground v.1.15,2016-07-24 05:17:00,
2016-07-24 01:22:00,74.5,70.7,30.02,North,32767,0.0,0.0,88,0.00,,,0.00,0,Wunderground v.1.15,2016-07-24 05:22:00,
2016-07-24 01:27:00,74.4,70.6,30.02,North,32767,0.0,0.0,88,0.00,,,0.00,0,Wunderground v.1.15,2016-07-24 05:27:00,
2016-07-24 01:34:00,74.4,70.9,30.03,North,32767,0.0,0.0,89,0.00,,,0.00,0,Wunderground v.1.15,2016-07-24 05:34:00,
2016-07-24 01:40:00,74.3,70.8,30.03,North,32767,0.0,0.0,89,0.00,,,0.00,0,Wunderground v.1.15,2016-07-24 05:40:00,
2016-07-24 01:45:00,74.2,70.7,30.03,North,32767,0.0,0.0,89,0.00,,,0.00,0,Wunderground v.1.15,2016-07-24 05:45:00,
2016-07-24 01:50:00,74.2,70.7,30.04,North,32767,0.0,0.0,89,0.00,,,0.00,0,Wunderground v.1.15,2016-07-24 05:50:00,
2016-07-24 01:55:00,74.1,70.6,30.04,North,32767,0.0,0.0,89,0.00,,,0.00,0,Wunderground v.1.15,2016-07-24 05:55:00,
2016-07-24 02:01:00,74.0,70.6,30.04,North,32767,0.0,0.0,89,0.00,,,0.00,0,Wunderground v.1.15,2016-07-24 06:01:00,
2016-07-24 02:07:00,74.0,70.6,30.04,North,32767,0.0,0.0,89,0.00,,,0.00,0,Wunderground v.1.15,2016-07-24 06:07:00,
2016-07-24 02:12:00,73.9,70.5,30.04,North,32767,0.0,0.0,89,0.00,,,0.00,0,Wunderground v.1.15,2016-07-24 06:12:00,
2016-07-24 02:17:00,74.0,70.9,30.03,North,32767,0.0,0.0,90,0.00,,,0.00,0,Wunderground v.1.15,2016-07-24 06:17:00,
2016-07-24 02:22:00,74.0,70.9,30.03,North,32767,0.0,0.0,90,0.00,,,0.00,0,Wunderground v.1.15,2016-07-24 06:22:00,
2016-07-24 02:27:00,73.9,70.8,30.03,North,32767,0.0,0.0,90,0.00,,,0.00,0,Wunderground v.1.15,2016-07-24 06:27:00,
2016-07-24 02:33:00,73.9,70.8,30.03,North,32767,0.0,0.0,90,0.00,,,0.00,0,Wunderground v.1.15,2016-07-24 06:33:00,
2016-07-24 02:39:00,74.0,70.9,30.03,North,32767,0.0,0.0,90,0.00,,,0.00,0,Wunderground v.1.15,2016-07-24 06:39:00,
2016-07-24 02:44:00,73.9,70.8,30.02,North,32767,0.0,0.0,90,0.00,,,0.00,0,Wunderground v.1.15,2016-07-24 06:44:00,
2016-07-24 02:50:00,73.8,70.7,30.02,North,32767,0.0,0.0,90,0.00,,,0.00,0,Wunderground v.1.15,2016-07-24 06:50:00,
2016-07-24 02:56:00,73.5,70.4,30.02,North,32767,0.0,0.0,90,0.00,,,0.00,0,Wunderground v.1.15,2016-07-24 06:56:00,
2016-07-24 03:01:00,73.5,70.7,30.02,North,32767,0.0,0.0,91,0.00,,,0.00,0,Wunderground v.1.15,2016-07-24 07:01:00,
2016-07-24 03:06:00,73.4,70.6,30.02,North,32767,0.0,0.0,91,0.00,,,0.00,0,Wunderground v.1.15,2016-07-24 07:06:00,
2016-07-24 03:11:00,73.5,70.7,30.02,North,32767,0.0,0.0,91,0.00,,,0.00,0,Wunderground v.1.15,2016-07-24 07:11:00,
2016-07-24 03:16:00,73.5,70.7,30.02,North,32767,0.0,0.0,91,0.00,,,0.00,0,Wunderground v.1.15,2016-07-24 07:16:00,
2016-07-24 03:21:00,73.6,70.8,30.02,North,32767,0.0,0.0,91,0.00,,,0.00,0,Wunderground v.1.15,2016-07-24 07:21:00,
2016-07-24 03:27:00,73.6,70.8,30.01,North,32767,0.0,0.0,91,0.00,,,0.00,0,Wunderground v.1.15,2016-07-24 07:27:00,
2016-07-24 03:33:00,73.6,70.8,30.01,North,32767,0.0,0.0,91,0.00,,,0.00,0,Wunderground v.1.15,2016-07-24 07:33:00,
2016-07-24 03:38:00,73.5,70.7,30.01,North,32767,0.0,0.0,91,0.00,,,0.00,0,Wunderground v.1.15,2016-07-24 07:38:00,
2016-07-24 03:44:00,73.6,70.8,30.01,North,32767,0.0,0.0,91,0.00,,,0.00,0,Wunderground v.1.15,2016-07-24 07:44:00,
2016-07-24 03:49:00,73.6,70.8,30.01,North,32767,0.0,0.0,91,0.00,,,0.00,0,Wunderground v.1.15,2016-07-24 07:49:00,
2016-07-24 03:56:00,73.5,70.7,30.01,North,32767,0.0,0.0,91,0.00,,,0.00,0,Wunderground v.1.15,2016-07-24 07:56:00,
2016-07-24 04:01:00,73.5,70.7,30.01,North,32767,0.0,0.0,91,0.00,,,0.00,0,Wunderground v.1.15,2016-07-24 08:01:00,
2016-07-24 04:06:00,73.4,70.6,30.01,North,32767,0.0,0.0,91,0.00,,,0.00,0,Wunderground v.1.15,2016-07-24 08:06:00,
2016-07-24 04:12:00,73.3,70.5,30.02,North,32767,0.0,0.0,91,0.00,,,0.00,0,Wunderground v.1.15,2016-07-24 08:12:00,
2016-07-24 04:17:00,73.2,70.1,30.02,North,32767,0.0,0.0,90,0.00,,,0.00,0,Wunderground v.1.15,2016-07-24 08:17:00,
2016-07-24 04:22:00,73.2,70.4,30.01,North,32767,0.0,0.0,91,0.00,,,0.00,0,Wunderground v.1.15,2016-07-24 08:22:00,
2016-07-24 04:28:00,73.2,70.4,30.01,North,32767,0.0,0.0,91,0.00,,,0.00,0,Wunderground v.1.15,2016-07-24 08:28:00,
2016-07-24 04:33:00,73.2,70.4,30.01,North,32767,0.0,0.0,91,0.00,,,0.00,0,Wunderground v.1.15,2016-07-24 08:33:00,
2016-07-24 04:39:00,73.1,70.3,30.01,North,32767,0.0,0.0,91,0.00,,,0.00,0,Wunderground v.1.15,2016-07-24 08:39:00,
2016-07-24 04:44:00,73.1,70.3,30.01,North,32767,0.0,0.0,91,0.00,,,0.00,0,Wunderground v.1.15,2016-07-24 08:44:00,
2016-07-24 04:49:00,72.9,70.1,30.01,North,32767,0.0,0.0,91,0.00,,,0.00,0,Wunderground v.1.15,2016-07-24 08:49:00,
2016-07-24 04:54:00,72.8,70.0,30.01,North,32767,0.0,0.0,91,0.00,,,0.00,0,Wunderground v.1.15,2016-07-24 08:54:00,
2016-07-24 05:01:00,72.7,69.9,30.02,North,32767,0.0,0.0,91,0.00,,,0.00,0,Wunderground v.1.15,2016-07-24 09:01:00,
2016-07-24 05:06:00,72.6,70.1,30.02,North,32767,0.0,0.0,92,0.00,,,0.00,0,Wunderground v.1.15,2016-07-24 09:06:00,
2016-07-24 05:11:00,72.5,70.0,30.02,North,32767,0.0,0.0,92,0.00,,,0.00,0,Wunderground v.1.15,2016-07-24 09:11:00,
2016-07-24 05:17:00,72.5,70.0,30.02,North,32767,0.0,0.0,92,0.00,,,0.00,0,Wunderground v.1.15,2016-07-24 09:17:00,
2016-07-24 05:22:00,72.5,70.4,30.02,North,32767,0.0,0.0,93,0.00,,,0.00,0,Wunderground v.1.15,2016-07-24 09:22:00,
2016-07-24 05:27:00,72.4,70.3,30.02,North,32767,0.0,0.0,93,0.00,,,0.00,0,Wunderground v.1.15,2016-07-24 09:27:00,
2016-07-24 05:32:00,72.5,70.4,30.02,North,32767,0.0,0.0,93,0.00,,,0.00,0,Wunderground v.1.15,2016-07-24 09:32:00,
2016-07-24 05:37:00,72.5,70.4,30.02,North,32767,0.0,0.0,93,0.00,,,0.00,0,Wunderground v.1.15,2016-07-24 09:37:00,
2016-07-24 05:43:00,72.4,70.3,30.02,North,32767,0.0,0.0,93,0.00,,,0.00,0,Wunderground v.1.15,2016-07-24 09:43:00,
2016-07-24 05:48:00,72.4,70.3,30.02,North,32767,0.0,0.0,93,0.00,,,0.00,0,Wunderground v.1.15,2016-07-24 09:48:00,
2016-07-24 05:53:00,72.3,70.2,30.02,North,32767,0.0,0.0,93,0.00,,,0.00,0,Wunderground v.1.15,2016-07-24 09:53:00,